www.pogodaiklimat.ru

Погода и климат >> Архив погоды >> Россия >> Магаданская область >> Совхоз Эльген


ПОГОДА в Совхозе Эльген

  • Прогноз погоды в Совхозе Эльген
  • Монитор погоды в Совхозе Эльген
  • Климат города

АРХИВ ПОГОДЫ в Совхозе Эльген

Время (UTC), дата Ветер
(напр.,м/с)
 
Видим.   Явления Облачность Т
(С)
Тd
(С)
f
(%)
Тe
(С)
Тes
(С)
Комфортность P
(гПа)
Po
(гПа)
Тmin
(С)
Tmax
(С)
R
(мм)
R24
(мм)
S
(см)
03 13.07 З 1 50 км 6/4 1000 м
[Cu hum Ci fib]
+29.0 +11.5 34 +30 +38 жарко 997.1 962.7
06 13.07 З 1 50 км 9/5 1000 м
[Cb cap Ac trans Ci fib]
+28.6 +12.4 37 +30 +32 жарко 996.7 962.3
09 13.07 штиль 0 50 км 9/6 1000 м
[Cb cap Ac trans Ci fib]
+24.5 +14.3 53 +27 +27 жарко 998.2 963.3 +30.0
12 13.07 штиль 0 50 км 9/5 1000 м
[Sc Ac trans Ci fib]
+16.0 +12.5 80 +16 +16 1000.6 964.6
15 13.07 СЗ 1 50 км 9/6 1000 м
[Sc Ac trans Ci fib]
+13.3 +11.6 89 +13 +13 1002.6 966.2
18 13.07 С 1 н/о н/о +14.4 +12.8 90 +15 +15 1003.4 967.1
21 13.07 штиль 0 50 км 10/8 1000 м
[Sc Ac trans]
+18.0 +13.9 77 +18 +19 1003.7 967.8 +11.7
00 14.07 штиль 0 50 км 10/4 1000 м
[Sc Ac trans Cs]
+23.0 +15.3 62 +27 +31 душно 1002.6 967.4
03 14.07 штиль 0 50 км 10/5 1000 м
[Sc Ac trans Cs]
+25.9 +14.9 51 +29 +33 душно 1001.8 966.9
06 14.07 штиль 0 50 км 9/6 1000 м
[Sc Ac trans Ci fib]
+26.5 +14.7 48 +29 +31 жарко 1001.6 966.8
09 14.07 штиль 0 50 км 9/8 1000 м
[Cb cap Ac trans Ci fib]
+24.6 +15.6 57 +28 +28 душно 1001.8 966.8 +27.4
12 14.07 В 1
{10}
50 км в посл. час ливневой дождь {гроза} 10/10 1000 м
[Cb cap]
+18.2 +15.9 86 +20 +20 1005.1 969.3
15 14.07 штиль 0 50 км 10/8 1000 м
[Cb cap Ac trans]
+13.5 +12.6 94 +13 +13 1006.6 970.1
18 14.07 штиль 0 50 км 9/5 1000 м
[Cb cap Ac trans Ci fib]
+12.7 +12.0 96 +12 +12 1007.4 970.7
21 14.07 штиль 0 10 км в посл. час туман 6/3 1000 м
[Sc Ac trans Ci fib]
+18.3 +15.8 85 +19 +22 1007.4 971.5 +12.5 0.9
00 15.07 штиль 0 50 км {туман} 6/4 1000 м
[Cb cap Ci fib]
+23.7 +16.2 63 +27 +35 жарко 1007.0 971.8
03 15.07 С 1 50 км 8/5 1000 м
[Cb cap Ci fib]
+26.1 +14.8 50 +29 +35 жарко 1006.7 971.7
06 15.07 В 2 50 км 9/6 1000 м
[Cb cap Ac trans Ci fib]
+25.9 +16.3 55 +29 +31 душно 1006.7 971.7
09 15.07 В 2 50 км 8/0
[Ac trans Ci fib]
+22.6 +14.8 61 +26 +27 жарко 1007.7 972.2 +27.4
12 15.07 В 1 50 км 6/3 1000 м
[Sc Ac trans Ci fib]
+16.4 +13.3 82 +17 +17 1009.1 972.9
15 15.07 штиль 0 50 км 8/4 1000 м
[Sc Ac trans Ci fib]
+11.3 +10.2 93 +11 +11 1009.6 972.7
18 15.07 ЮВ 1 50 км 9/6 1000 м
[Sc Ac trans Ci fib]
+10.8 +10.0 95 +10 +10 1009.4 972.4
21 15.07 ЮВ 1 50 км 9/3 1000 м
[Sc Ac trans Ci fib]
+16.9 +13.6 81 +18 +20 1007.9 971.8 +9.6
00 16.07 ЮЗ 1 50 км 6/3 1000 м
[Cu hum Ac trans Ci fib]
+26.8 +13.4 44 +29 +36 жарко 1005.4 970.5
03 16.07 Ю 1 50 км 6/4 1000 м
[Cu hum Ci fib]
+28.2 +12.5 38 +30 +37 жарко 1003.7 969.0
06 16.07 Ю 1 50 км 8/5 1000 м
[Cb cap Ci fib]
+29.5 +11.4 33 +30 +33 жарко 1002.1 967.6
09 16.07 штиль 0 50 км 9/6 1000 м
[Cb cap Ac trans Ci fib]
+24.2 +13.5 51 +26 +27 жарко 1002.5 967.5 +30.5
12 16.07 З 1 50 км 9/5 1000 м
[Cb cap Ac trans Ci fib]
+15.2 +12.2 82 +16 +16 1006.7 970.4
15 16.07 Ю 1 50 км 4/0
[Ci fib]
+10.6 +9.8 95 +10 +10 1007.0 970.1
18 16.07 В 1 50 км 4/3 1000 м
[Sc Ci fib]
+8.1 +7.4 95 +7 +7 1006.5 969.2
21 16.07 ЮВ 3 50 км ясно +16.1 +13.0 82 +16 +19 1003.7 967.6 +8.1
00 17.07 Ю 3 50 км 6/4 1000 м
[Sc Ac trans Ci fib]
+22.6 +12.2 52 +25 +30 комфорт 1000.6 965.4
03 17.07 З 1 50 км 6/4 1000 м
[Cu Sc Ac trans Ci fib]
+22.6 +12.2 52 +25 +32 комфорт 1000.6 962.9
06 17.07 З 1 50 км 9/6 1000 м
[Cb cap Ac trans Ci fib]
+27.3 +12.5 40 +29 +31 жарко 996.5 962.0
09 17.07 ЮЗ 1
{11}
50 км {ливн. осадки} 8/6 1000 м
[Cb cap Ac trans Ci fib]
+23.9 +12.4 49 +26 +26 жарко 997.8 962.8 +29.3 0.0
12 17.07 штиль 0 50 км {ливн. осадки} 4/3 1000 м
[Sc Ac trans Ci fib]
+15.5 +10.8 74 +15 +15 1002.9 966.7
15 17.07 С 1 50 км 8/4 1000 м
[Sc Ac trans Ci fib]
+9.2 +8.0 92 +8 +8 1006.3 969.2
18 17.07 ЮВ 1 50 км 5/3 1000 м
[Sc Ci fib]
+10.6 +8.8 89 +10 +10 1007.5 970.5
21 17.07 ЮВ 3 50 км 8/0
[Ac trans Ci fib]
+17.1 +11.2 68 +17 +19 1005.4 969.4 +8.1
00 18.07 ЮВ 3 50 км 9/6 1000 м
[Cb cap Ac trans Ci fib]
+19.5 +11.6 60 +21 +23 комфорт 1002.4 966.7
03 18.07 ЮВ 3 50 км 10/8 1000 м
[Cb cap Ac trans]
+21.8 +13.5 59 +25 +25 комфорт 998.7 963.5
06 18.07 СЗ 4
{12}
50 км 10/10 600 м
[Cb cap]
+11.0 +8.2 83 +9 +9 1002.5 965.8
09 18.07 СЗ 2 10 км слабый ливневой дождь 10/10 600 м
[Cb cap]
+5.3 +4.4 94 +3 +3 1008.0 970.3 +22.9 6
12 18.07 СЗ 2 10 км слабый ливневой дождь 10/10 600 м
[Cb cap]
+4.0 +3.1 94 +1 +1 1010.6 972.7
15 18.07 СЗ 2 10 км слабый ливневой дождь 10/10 600 м
[Cb cap]
+3.4 +2.6 94 0 0 1011.2 973.1
18 18.07 СЗ 2 10 км слабый ливневой дождь 10/10 600 м
[Cb cap]
+2.6 +2.0 96 -1 -1 1012.0 973.8
21 18.07 СЗ 2 10 км слабый ливневой дождь 10/10 600 м
[Cb cap]
+2.6 +1.9 95 -1 -1 1013.1 974.8 +2.2 9
00 19.07 СЗ 3 50 км {ливн. осадки} 10/10 600 м
[Cb cap]
+6.4 +3.7 83 +3 +3 1013.3 975.5
03 19.07 СЗ 3 50 км 10/10 600 м
[Cb cap]
+8.5 +1.9 63 +6 +6 1013.1 975.7
06 19.07 С 2 50 км 10/10 1000 м
[Cb cap]
+8.5 +2.0 64 +7 +7 1013.6 976.1
09 19.07 С 1 50 км 10/8 1000 м
[Cb cap Ac trans]
+9.3 +2.0 60 +9 +9 1014.3 976.8 +10.0 0.6
12 19.07 штиль 0 50 км 10/10 1000 м
[Cb cap]
+5.8 +3.1 83 +5 +5 1015.6 977.7
15 19.07 штиль 0 50 км 4/3 1000 м
[Sc Ci fib]
-1.3 -1.9 96 -3 -3 1017.0 978.0
18 19.07 штиль 0 50 км 3/0
[Ci fib]
-2.0 -2.5 96 -3 -3 1017.2 978.1
21 19.07 СВ 1 50 км ясно +6.0 +1.5 73 +5 +10 1016.4 978.4 -2.7

 

Местоположение метеостанции Совхоз Эльген (Магаданская область, Россия): широта 62.80 долгота 150.60 высота над уровнем моря 312 м.

В архиве по умолчанию представлена погода в Совхозе Эльген за последнюю неделю. Архивные данные за месяц целиком и за предыдущие месяцы, начиная с января 2011 года, Вы можете получить, выбрав интересующий диапазон дат из раскрывающегося списка и нажав кнопку "Ввод!".


*Определитесь, кто Вы:
робот инопланетянин человек

Внимание! Время в таблицах - всемирное. Для получения местного времени необходимо прибавить поправку, которая в Совхозе Эльген равна 11 ч.

Смотрите также архив погоды в соседних городах и на ближайших метеорологических станциях:

Погода в Ягодной (Магаданская область, Россия) (60 км)
Погода в Усть-Бохапче (Магаданская область, Россия) (78 км)
Погода в Сеймчане (Магаданская область, Россия) (92 км)
Погода в Среднекане (Магаданская область, Россия) (95 км)
Погода в Озере Джека Лондона (Магаданская область, Россия) (98 км)
Погода в Сусумане (Магаданская область, Россия) (127 км)
Погода в Колымской (Магаданская область, Россия) (188 км)
Погода в Усть-Омчуге (Магаданская область, Россия) (194 км)
Погода в Талае (Магаданская область, Россия) (206 км)
Погода в Балыгычане (Магаданская область, Россия) (214 км)

Пояснения к столбцам:

Ветер - указаны скорость ветра в м/с - средняя за 10 мин, порывы в срок и между сроками (в фигурных скобках) и направление, откуда дует ветер: С - северный, СВ - северо-восточный, В - восточный, ЮВ - юго-восточный, Ю - южный, ЮЗ - юго-западный, З - западный, СЗ - северо-западный.
Видимость - горизонтальная дальность видимости в метрах или километрах. При видимости от 1 до 10 км при отсутствии осадков обычно наблюдается дымка, при ухудшении видимости до 1 км и менее - туман. В сухую погоду видимость может ухудшаться дымом, пылью или мглою.
Явления - указаны атмосферные явления, наблюдавшиеся в срок или в последний час перед сроком; фигурными скобками обозначены явления, наблюдавшиеся между сроками (за 1-3 часа до срока); квадратными скобками обозначены град или гололедные отложения с указанием их диаметра в мм.
Облачность - указаны через наклонную черту общая и нижняя облачность в баллах и высота нижней границы облаков в метрах; квадратными скобками обозначены формы облаков: Ci - перистые, Cs - перисто-слоистые, Cc - перисто-кучевые, Ac - высококучевые, As - высокослоистые, Sc - слоисто-кучевые, Ns - слоисто-дождевые, Cu - кучевые, Cb - кучево-дождевые. Подробнее классификацию облаков см. в Атласе облаков (PDF).
T - Температура воздуха - температура, измеренная на высоте 2 м над землей.
Td - Температура точки росы - температура, при понижении до которой содержащийся в воздухе водяной пар достигнет насыщения.
f - Относительная влажность воздуха - влажноcть воздуха, измеренная на высоте 2 м над землей.
Te - Эффективная температура - температура, которую ощущает одетый по сезону человек в тени. Характеристика душности погоды. При расчете учитывается влияние влажности воздуха и скорости ветра на теплоощущения человека.
Tes - Эффективная температура на солнце - температура, которую ощущает человек, с поправкой на солнечный нагрев. Характеристика знойности погоды. Зависит от высоты солнца над горизонтом, облачности и скорости ветра. Ночью, в пасмурную погоду, а также при ветре 12 м/с и более поправка равна нулю.
P - Атмосферное давление - приведенное к уровню моря атмосферное давление.
Po - Атмосферное давление - измеренное на уровне метеостанции атмосферное давление.
Tmin - Минимальная температура - минимум температуры воздуха на высоте 2 м над землей.
Tmax - Максимальная температура - максимум температуры воздуха на высоте 2 м над землей.
R - Количество осадков - Количество выпавших осадков за период времени, мм. При наведении курсора мыши на число - период времени, за который выпало указанное количество осадков.
R24 - Количество осадков - Количество выпавших осадков за 24 часа, мм.
S - Снежный покров - Высота снежного покрова, см. При наведении курсора мыши на число - состояние снежного покрова и степень покрытия местности в баллах.